Skip Page Navigation
NASA JPL Caltech
NASA Logo - Jet Propulsion Laboratory + View the NASA Portal
+ Center for Near-Earth Object Studies
JPL Home Earth Solar System Stars & Galaxies Technology
JPL Solar System Dynamics
BODIES ORBITS EPHEMERIDES TOOLS PHYSICAL DATA DISCOVERY FAQ SITE MAP
JPL Small-Body Database Browser
Search: [ help ]  
(2014 WE6)
Classification: Aten [NEO]          SPK-ID: 3696401
Ephemeris | Orbit Diagram | Orbital Elements | Mission Design | Physical Parameters | Close-Approach Data ]

[ hide orbit diagram ]

For accurate long-term ephemerides, please instead use our Horizons system.This orbit viewer was implemented using two-body methods, and hence should not be used for determining accurate long-term trajectories (over several years or decades) or planetary encounter circumstances.


Orbital Elements at Epoch 2459000.5 (2020-May-31.0) TDB
Reference: JPL 5 (heliocentric ecliptic J2000)
 Element Value Uncertainty (1-sigma)   Units 
e .1362554862019431 7.965e-05  
a .9689236818033304 7.3562e-06 au
q .8369025144466409 8.3516e-05 au
i .3390776877527394 0.00019149 deg
node 52.56838390787068 0.0007211 deg
peri 251.5907966957668 0.0014762 deg
M 24.01931542601972 0.014441 deg
tp 2458977.257068210546
(2020-May-07.75706821)
0.013711 TDB
period 348.3636105273509
0.95
0.0039672
1.086e-05
d
yr
n 1.033402999397767 1.1769e-05 deg/d
Q 1.10094484916002 8.3585e-06 au
  Orbit Determination Parameters
   # obs. used (total)      25  
   data-arc span      4 days  
   first obs. used      2014-11-17  
   last obs. used      2014-11-21  
   planetary ephem.      DE431  
   SB-pert. ephem.      SB431-N16  
   condition code      4  
   norm. resid. RMS      .74865  
   source      ORB  
   producer      Otto Matic  
   solution date      2017-Apr-06 08:37:28  

Additional Information
 Earth MOID = .0001646 au 
 Jupiter MOID = 4.00718 au 
 T_jup = 6.225 
[ hide covariance matrix ]
Orbital Elements at Epoch 2456981.5 (2014-Nov-20.0) TDB
Reference: JPL 5 (heliocentric ecliptic J2000)
 Element Value Uncertainty (1-sigma)   Units 
e .1375498453035042 7.8088e-05  
q .835557529104664 8.0331e-05 au
tp 2456886.870971967888
(2014-Aug-17.37097197)
0.0077577 TDB
node 52.56618664520391 0.00024158 deg
peri 251.7442397573637 0.0017111 deg
i .3416171061366274 0.00018899 deg
  Orbit Determination Parameters
   # obs. used (total)      25  
   data-arc span      4 days  
   first obs. used      2014-11-17  
   last obs. used      2014-11-21  
   planetary ephem.      DE431  
   SB-pert. ephem.      SB431-N16  
   condition code      4  
   norm. resid. RMS      .74865  
   source      ORB  
   producer      Otto Matic  
   solution date      2017-Apr-06 08:37:28  

Additional Information
 Jupiter MOID = 4.00718 au 
 T_jup = 6.225 
Orbit Covariance (6×6)
  e q tp node peri i
e 6.097687541846435E-9 -6.27275050498447E-9 6.042401804266896E-7 -1.141400266068521E-10 -1.286249119254614E-7 1.471859542048871E-8
q -6.27275050498447E-9 6.453093629507366E-9 -6.213432875879484E-7 1.868321224409887E-10 1.325257537592498E-7 -1.514350273901597E-8
tp 6.042401804266896E-7 -6.213432875879484E-7 6.01820169368923E-5 8.744359083449766E-8 -1.250882376717139E-5 1.455136129262948E-6
node -1.141400266068521E-10 1.868321224409887E-10 8.744359083449766E-8 5.835900398319862E-8 5.101039383721208E-8 3.452543632999789E-10
peri -1.286249119254614E-7 1.325257537592498E-7 -1.250882376717139E-5 5.101039383721208E-8 2.927748749850884E-6 -3.147494456632921E-7
i 1.471859542048871E-8 -1.514350273901597E-8 1.455136129262948E-6 3.452543632999789E-10 -3.147494456632921E-7 3.571585598511266E-8

Ephemeris | Orbit Diagram | Orbital Elements | Mission Design | Physical Parameters | Close-Approach Data ]

Physical Parameter Table
Parameter Symbol Value Units Sigma Reference Notes
absolute magnitude H 30.4   n/a MPO318751  

[ show close-approach data ]
Ephemeris | Orbit Diagram | Orbital Elements | Mission Design | Physical Parameters | Close-Approach Data ]
ABOUT SSD CREDITS/AWARDS PRIVACY/COPYRIGHT GLOSSARY LINKS
FirstGov 2021-Jan-21 18:50 UT
(server date/time)  
NASA Home Page
Site Manager:   Ryan S. Park
Webmaster  Alan B. Chamberlin